Total_Precipitation_Accumulation
0.01 0.01 0.02 0.00 0.01 0.00 0.00 0.00 0.00 0.00 0.00 0.00 0.00 0.00 0.00 0.00 0.00 0.00 0.00 0.00 0.00 0.00 0.00 0.00 0.00 0.00 0.03 0.03 0.01 0.01 0.01 0.04 0.01 0.00 0.02 0.07 0.06 0.08 0.11 0.17 0.34 0.37 0.45 0.31
0.02 0.02 0.02 0.01 0.02 0.00 0.00 0.00 0.00 0.00 0.00 0.00 0.00 0.00 0.00 0.00 0.00 0.00 0.00 0.00 0.00 0.00 0.00 0.01 0.00 0.00 0.00 0.00 0.00 0.01 0.03 0.06 0.05 0.01 0.04 0.04 0.02 0.03 0.06 0.13 0.23 0.29 0.28 0.32
0.03 0.03 0.02 0.01 0.02 0.00 0.00 0.00 0.00 0.00 0.00 0.00 0.00 0.00 0.00 0.00 0.00 0.00 0.00 0.00 0.00 0.00 0.00 0.00 0.01 0.00 0.00 0.00 0.00 0.07 0.12 0.16 0.08 0.04 0.05 0.09 0.04 0.02 0.03 0.07 0.16 0.15 0.20 0.16
0.03 0.03 0.02 0.03 0.05 0.00 0.00 0.00 0.00 0.00 0.00 0.00 0.00 0.00 0.00 0.00 0.00 0.00 0.00 0.00 0.00 0.00 0.01 0.00 0.00 0.00 0.00 0.01 0.02 0.04 0.11 0.10 0.02 0.02 0.03 0.04 0.04 0.04 0.03 0.05 0.10 0.10 0.14 0.14
0.03 0.03 0.02 0.04 0.09 0.01 0.00 0.00 0.00 0.02 0.01 0.00 0.00 0.00 0.00 0.00 0.00 0.00 0.01 0.00 0.01 0.01 0.01 0.02 0.01 0.01 0.01 0.01 0.02 0.05 0.10 0.14 0.06 0.06 0.03 0.04 0.03 0.01 0.03 0.05 0.07 0.08 0.10 0.11
0.05 0.04 0.03 0.06 0.13 0.04 0.05 0.04 0.03 0.11 0.06 0.01 0.02 0.01 0.00 0.00 0.01 0.02 0.00 0.01 0.03 0.02 0.01 0.02 0.02 0.01 0.01 0.01 0.01 0.03 0.06 0.06 0.07 0.06 0.06 0.09 0.07 0.03 0.01 0.03 0.07 0.08 0.09 0.11
0.05 0.03 0.05 0.08 0.14 0.19 0.14 0.15 0.23 0.29 0.10 0.03 0.02 0.00 0.01 0.01 0.03 0.06 0.03 0.04 0.08 0.04 0.02 0.04 0.04 0.03 0.03 0.02 0.01 0.02 0.07 0.09 0.13 0.10 0.10 0.12 0.04 0.02 0.01 0.02 0.07 0.09 0.10 0.11
0.04 0.05 0.09 0.09 0.08 0.16 0.21 0.18 0.31 0.45 0.22 0.04 0.04 0.04 0.08 0.09 0.09 0.15 0.09 0.04 0.05 0.06 0.07 0.09 0.05 0.03 0.04 0.03 0.01 0.02 0.05 0.13 0.16 0.08 0.05 0.05 0.03 0.02 0.03 0.03 0.06 0.07 0.09 0.09
0.04 0.08 0.07 0.04 0.05 0.08 0.13 0.12 0.19 0.48 0.49 0.08 0.06 0.13 0.13 0.16 0.11 0.05 0.04 0.02 0.03 0.07 0.09 0.09 0.08 0.06 0.07 0.15 0.14 0.09 0.14 0.16 0.18 0.10 0.07 0.07 0.04 0.02 0.03 0.03 0.03 0.04 0.05 0.07
0.07 0.04 0.01 0.02 0.04 0.11 0.16 0.06 0.17 0.51 0.62 0.23 0.19 0.24 0.16 0.10 0.08 0.08 0.03 0.03 0.01 0.03 0.08 0.10 0.06 0.05 0.06 0.08 0.11 0.08 0.10 0.10 0.13 0.09 0.16 0.10 0.03 0.02 0.03 0.04 0.03 0.02 0.03 0.05
0.02 0.01 0.02 0.05 0.10 0.13 0.17 0.05 0.11 0.32 0.46 0.23 0.11 0.12 0.16 0.14 0.09 0.09 0.06 0.04 0.04 0.06 0.08 0.06 0.07 0.09 0.11 0.07 0.07 0.06 0.06 0.06 0.06 0.06 0.09 0.07 0.03 0.03 0.04 0.04 0.05 0.03 0.02 0.02
0.01 0.01 0.05 0.09 0.10 0.08 0.13 0.02 0.02 0.13 0.31 0.35 0.16 0.19 0.16 0.11 0.08 0.09 0.06 0.05 0.03 0.10 0.18 0.15 0.11 0.10 0.06 0.05 0.04 0.04 0.05 0.05 0.04 0.04 0.05 0.05 0.06 0.06 0.07 0.05 0.03 0.03 0.02 0.01
0.01 0.04 0.07 0.06 0.05 0.05 0.04 0.01 0.03 0.11 0.26 0.43 0.31 0.22 0.20 0.13 0.11 0.16 0.14 0.19 0.20 0.12 0.07 0.12 0.08 0.07 0.07 0.05 0.04 0.04 0.04 0.04 0.04 0.04 0.06 0.07 0.07 0.04 0.03 0.03 0.03 0.02 0.01 0.01
0.01 0.05 0.05 0.03 0.05 0.04 0.01 0.00 0.01 0.09 0.16 0.30 0.26 0.17 0.18 0.15 0.08 0.12 0.13 0.13 0.09 0.07 0.03 0.04 0.04 0.06 0.04 0.04 0.04 0.03 0.05 0.04 0.03 0.04 0.04 0.05 0.04 0.03 0.02 0.01 0.01 0.00 0.00 0.00
0.02 0.04 0.02 0.02 0.11 0.03 0.00 0.01 0.08 0.17 0.35 0.40 0.20 0.16 0.14 0.07 0.09 0.12 0.14 0.18 0.15 0.09 0.09 0.05 0.07 0.07 0.04 0.04 0.02 0.04 0.06 0.06 0.05 0.05 0.05 0.05 0.04 0.03 0.02 0.01 0.01 0.01 0.01 0.00
0.01 0.05 0.02 0.06 0.19 0.05 0.02 0.12 0.10 0.10 0.19 0.23 0.20 0.12 0.05 0.02 0.02 0.04 0.08 0.11 0.10 0.07 0.04 0.06 0.07 0.12 0.07 0.02 0.02 0.07 0.08 0.08 0.06 0.05 0.05 0.04 0.03 0.02 0.02 0.01 0.01 0.03 0.01 0.00
0.03 0.08 0.06 0.04 0.04 0.00 0.00 0.02 0.03 0.09 0.27 0.24 0.18 0.10 0.02 0.00 0.05 0.01 0.01 0.01 0.01 0.01 0.03 0.04 0.05 0.05 0.01 0.01 0.04 0.07 0.06 0.07 0.05 0.04 0.03 0.03 0.02 0.02 0.02 0.02 0.01 0.02 0.00 0.00
0.05 0.18 0.26 0.10 0.00 0.00 0.01 0.00 0.00 0.03 0.11 0.06 0.08 0.06 0.03 0.01 0.04 0.07 0.01 0.00 0.00 0.00 0.02 0.04 0.03 0.01 0.00 0.04 0.08 0.06 0.04 0.04 0.03 0.02 0.03 0.03 0.02 0.02 0.01 0.00 0.01 0.00 0.00 0.00
0.13 0.16 0.04 0.00 0.00 0.00 0.00 0.01 0.00 0.00 0.02 0.03 0.03 0.08 0.06 0.01 0.05 0.13 0.03 0.00 0.01 0.01 0.01 0.02 0.01 0.01 0.05 0.09 0.07 0.05 0.05 0.05 0.04 0.01 0.02 0.02 0.01 0.01 0.01 0.01 0.00 0.00 0.00 0.01
0.01 0.00 0.00 0.00 0.00 0.00 0.00 0.00 0.00 0.00 0.00 0.00 0.04 0.05 0.06 0.05 0.04 0.08 0.06 0.01 0.01 0.01 0.04 0.00 0.00 0.06 0.09 0.08 0.07 0.06 0.05 0.04 0.04 0.02 0.02 0.02 0.01 0.01 0.01 0.01 0.01 0.02 0.02 0.01
0.00 0.00 0.00 0.00 0.00 0.00 0.00 0.00 0.00 0.00 0.00 0.00 0.00 0.01 0.03 0.02 0.09 0.12 0.07 0.04 0.02 0.01 0.04 0.00 0.01 0.04 0.05 0.04 0.03 0.03 0.02 0.02 0.02 0.03 0.04 0.03 0.02 0.03 0.02 0.01 0.01 0.01 0.00 0.01
0.00 0.00 0.00 0.00 0.00 0.00 0.00 0.00 0.00 0.00 0.01 0.00 0.01 0.01 0.01 0.01 0.07 0.09 0.05 0.03 0.01 0.04 0.02 0.00 0.02 0.06 0.05 0.02 0.02 0.02 0.01 0.01 0.01 0.01 0.01 0.01 0.01 0.02 0.01 0.01 0.01 0.00 0.00 0.00
0.00 0.00 0.00 0.00 0.00 0.00 0.00 0.01 0.00 0.00 0.01 0.01 0.03 0.02 0.01 0.02 0.04 0.04 0.02 0.01 0.04 0.02 0.00 0.02 0.05 0.04 0.02 0.02 0.01 0.01 0.01 0.01 0.01 0.01 0.01 0.00 0.01 0.01 0.02 0.01 0.01 0.01 0.00 0.00
0.00 0.00 0.00 0.00 0.01 0.01 0.02 0.03 0.03 0.01 0.02 0.02 0.03 0.02 0.01 0.01 0.01 0.01 0.01 0.02 0.01 0.00 0.01 0.03 0.03 0.03 0.02 0.01 0.01 0.01 0.01 0.01 0.01 0.01 0.01 0.01 0.01 0.01 0.00 0.00 0.01 0.01 0.00 0.00
0.00 0.00 0.00 0.01 0.01 0.01 0.00 0.01 0.01 0.01 0.02 0.03 0.01 0.01 0.00 0.00 0.00 0.00 0.00 0.00 0.00 0.01 0.03 0.03 0.03 0.03 0.02 0.01 0.01 0.01 0.01 0.01 0.01 0.01 0.01 0.00 0.01 0.01 0.00 0.00 0.00 0.00 0.00 0.00
0.00 0.00 0.00 0.00 0.00 0.00 0.00 0.00 0.00 0.00 0.01 0.01 0.00 0.00 0.00 0.00 0.00 0.00 0.01 0.00 0.02 0.03 0.04 0.03 0.04 0.02 0.01 0.01 0.00 0.01 0.01 0.01 0.01 0.01 0.00 0.01 0.00 0.00 0.00 0.00 0.00 0.00 0.00 0.00
0.00 0.01 0.00 0.00 0.01 0.01 0.00 0.00 0.00 0.00 0.00 0.00 0.00 0.00 0.00 0.00 0.00 0.01 0.01 0.02 0.03 0.04 0.03 0.02 0.02 0.02 0.01 0.00 0.00 0.01 0.01 0.01 0.01 0.00 0.00 0.00 0.00 0.00 0.00 0.00 0.00 0.00 0.00 0.00